This demonstration page uses our WeatherBlox Daily Observations layout. Learn more.

Hourly Observations for March 14, 2018

Temp ( °F °C ) Dew Point ( °F °C ) Humidity (%) Winds ( mph kmh ) Pressure ( in mb ) Visibility ( mi km ) Precip ( " mm )
12:15 am 00:15 Clear 32 0.1 8 -13.3 36 36 S 7 11 30.36 1028 10 16.0934 0 0
12:35 am 00:35 Clear 33 0.5 8 -13.1 36 36 S 9 15 30.33 1027 10 16.0934 0 0
12:55 am 00:55 Clear 34 0.9 9 -12.9 35 35 S 9 15 30.33 1027 10 16.0934 0 0
1:15 am 01:15 Clear 33 0.3 9 -12.6 38 38 S 9 15 30.33 1027 10 16.0934 0 0
1:35 am 01:35 Clear 33 0.3 10 -12.5 38 38 SSW 7 11 30.33 1027 10 16.0934 0 0
1:55 am 01:55 Clear 32 0.1 10 -12.5 39 39 SSW 8 13 30.33 1027 10 16.0934 0 0
2:15 am 02:15 Clear 32 0.2 9 -12.7 38 38 SSW 6 9 30.33 1027 10 16.0934 0 0
2:35 am 02:35 Clear 31 -0.3 9 -12.8 39 39 SSW 8 13 30.33 1027 10 16.0934 0 0
2:55 am 02:55 Clear 32 0 10 -12.5 39 39 SSW 9 15 30.33 1027 10 16.0934 0 0
3:15 am 03:15 Clear 31 -0.5 10 -12.5 40 40 SW 8 13 30.3 1026 10 16.0934 0 0
3:35 am 03:35 Clear 32 0 10 -12 40 40 SW 8 13 30.3 1026 10 16.0934 0 0
3:55 am 03:55 Clear 32 0 11 -11.8 41 41 SW 8 13 30.3 1026 10 16.0934 0 0
4:15 am 04:15 Clear 33 0.4 11 -11.6 41 41 SW 12 19 30.3 1026 10 16.0934 0 0
4:35 am 04:35 Clear 32 0.1 11 -11.7 41 41 SW 10 17 30.27 1025 10 16.0934 0 0
4:55 am 04:55 Clear 31 -0.3 11 -11.7 42 42 SW 9 15 30.27 1025 10 16.0934 0 0
5:15 am 05:15 Clear 31 -0.5 11 -11.6 43 43 SW 8 13 30.24 1024 10 16.0934 0 0
5:35 am 05:35 Clear 30 -1.2 11 -11.5 46 46 SW 9 15 30.24 1024 10 16.0934 0 0
5:55 am 05:55 Clear 29 -1.9 11 -11.5 48 48 SW 7 11 30.24 1024 10 16.0934 0 0
6:15 am 06:15 Clear 28 -2.2 12 -11.3 50 50 SW 7 11 30.24 1024 10 16.0934 0 0
6:35 am 06:35 Clear 29 -1.7 12 -11 49 49 SW 7 11 30.24 1024 10 16.0934 0 0
6:55 am 06:55 Clear 29 -1.7 13 -10.8 50 50 SW 7 11 30.24 1024 10 16.0934 0 0
7:15 am 07:15 Clear 29 -1.5 13 -10.5 51 51 SW 8 13 30.24 1024 10 16.0934 0 0
7:35 am 07:35 Clear 29 -1.6 13 -10.5 51 51 SW 7 11 30.24 1024 10 16.0934 0 0
7:55 am 07:55 Sunny 28 -2.1 13 -10.3 54 54 SW 6 9 30.24 1024 10 16.0934 0 0
8:15 am 08:15 Sunny 29 -1.5 14 -10.1 52 52 SW 6 9 30.24 1024 10 16.0934 0 0
8:35 am 08:35 Sunny 31 -0.6 15 -9.5 51 51 SW 6 9 30.24 1024 10 16.0934 0 0
8:55 am 08:55 Sunny 33 0.3 16 -9 50 50 SW 5 7 30.24 1024 10 16.0934 0 0
9:15 am 09:15 Sunny 36 2 17 -8.4 46 46 SW 3 6 30.21 1023 10 16.0934 0 0
9:35 am 09:35 Sunny 39 3.8 17 -8.1 42 42 SW 9 15 30.21 1023 10 16.0934 0 0
9:55 am 09:55 Sunny 41 5 19 -7.3 41 41 SW 9 15 30.18 1022 10 16.0934 0 0
10:15 am 10:15 Sunny 44 6.7 21 -6.1 40 40 SW 10 17 30.15 1021 10 16.0934 0 0
10:35 am 10:35 Sunny 47 8.3 22 -5.4 38 38 SW 12 19 30.12 1020 10 16.0934 0 0
10:55 am 10:55 Sunny 49 9.3 23 -4.9 37 37 SW 14 22 30.12 1020 10 16.0934 0 0
11:15 am 11:15 Sunny 51 10.5 24 -4.5 35 35 SW 14 22 30.06 1018 10 16.0934 0 0
11:35 am 11:35 Sunny 52 11.1 24 -4.2 34 34 SW 15 24 30.06 1018 10 16.0934 0 0
11:55 am 11:55 Sunny 53 11.7 25 -3.9 34 34 SSW 13 20 30.06 1018 10 16.0934 0 0
12:15 pm 12:15 Sunny 55 12.8 26 -3.3 33 33 SW 12 19 30.06 1018 10 16.0934 0 0
12:35 pm 12:35 Sunny 57 13.9 27 -3 31 31 SSW 15 24 30 1016 10 16.0934 0 0
12:55 pm 12:55 Sunny 58 14.6 27 -2.7 30 30 SW 12 19 30 1016 10 16.0934 0 0
1:15 pm 13:15 Sunny 59 15.2 27 -2.6 29 29 SSW 13 20 29.97 1015 10 16.0934 0 0
1:35 pm 13:35 Sunny 61 15.9 28 -2.4 29 29 SSW 14 22 29.97 1015 10 16.0934 0 0
1:55 pm 13:55 Sunny 62 16.5 28 -2.2 28 28 SSW 12 19 29.91 1013 10 16.0934 0 0
2:15 pm 14:15 Sunny 64 17.6 29 -1.8 27 27 SSW 15 24 29.91 1013 10 16.0934 0 0
2:35 pm 14:35 Sunny 65 18.1 29 -1.7 26 26 S 12 19 29.91 1013 10 16.0934 0 0
2:55 pm 14:55 Sunny 65 18.1 29 -1.7 26 26 S 14 22 29.88 1012 10 16.0934 0 0
3:15 pm 15:15 Sunny 65 18.6 29 -1.6 26 26 SSW 12 19 29.88 1012 10 16.0934 0 0
3:35 pm 15:35 Sunny 66 19.1 29 -1.4 25 25 SW 10 17 29.83 1010 10 16.0934 0 0
3:55 pm 15:55 Sunny 67 19.2 29 -1.4 25 25 SSW 14 22 29.83 1010 10 16.0934 0 0
4:15 pm 16:15 Sunny 67 19.2 29 -1.4 25 25 S 9 15 29.83 1010 10 16.0934 0 0
4:35 pm 16:35 Sunny 68 19.9 30 -1.3 24 24 SSW 12 19 29.8 1009 10 16.0934 0 0
4:55 pm 16:55 Sunny 68 20 30 -1.2 24 24 SSW 12 19 29.8 1009 10 16.0934 0 0
5:15 pm 17:15 Sunny 68 19.8 29 -1.4 24 24 S 13 20 29.8 1009 10 16.0934 0 0
5:35 pm 17:35 Sunny 68 19.9 29 -1.4 24 24 SSW 13 20 29.8 1009 10 16.0934 0 0
5:55 pm 17:55 Sunny 67 19.7 30 -1.2 25 25 SSW 12 19 29.77 1008 10 16.0934 0 0
6:15 pm 18:15 Sunny 67 19.6 29 -1.4 24 24 SSW 13 20 29.77 1008 10 16.0934 0 0
6:35 pm 18:35 Sunny 67 19.4 29 -1.5 24 24 SSW 12 19 29.77 1008 10 16.0934 0 0
6:55 pm 18:55 Sunny 65 18.6 29 -1.5 26 26 S 8 13 29.77 1008 10 16.0934 0 0
7:15 pm 19:15 Sunny 61 16.1 29 -1.9 29 29 S 7 11 29.8 1009 10 16.0934 0 0
7:35 pm 19:35 Sunny 58 14.6 28 -2.2 32 32 S 5 7 29.8 1009 10 16.0934 0 0
7:55 pm 19:55 Clear 55 12.8 27 -2.8 34 34 S 5 7 29.83 1010 10 16.0934 0 0
8:15 pm 20:15 Clear 52 11.2 27 -3 37 37 S 6 9 29.83 1010 10 16.0934 0 0
8:35 pm 20:35 Clear 48 9 25 -3.8 41 41 S 6 9 29.83 1010 10 16.0934 0 0
8:55 pm 20:55 Clear 49 9.5 26 -3.4 40 40 S 6 9 29.83 1010 10 16.0934 0 0
9:15 pm 21:15 Clear 45 7.1 25 -4 45 45 SSE 5 7 29.85 1011 10 16.0934 0 0
9:35 pm 21:35 Clear 45 7.2 25 -3.8 46 46 SSE 5 7 29.85 1011 10 16.0934 0 0
9:55 pm 21:55 Clear 46 8 26 -3.2 45 45 SSE 6 9 29.83 1010 10 16.0934 0 0
10:15 pm 22:15 Clear 45 7 27 -3 49 49 SSE 8 13 29.85 1011 10 16.0934 0 0
10:35 pm 22:35 Clear 44 6.5 26 -3.3 50 50 SSE 6 9 29.85 1011 10 16.0934 0 0
10:55 pm 22:55 Clear 43 6.3 26 -3.3 51 51 SSE 7 11 29.85 1011 10 16.0934 0 0
11:15 pm 23:15 Clear 44 6.8 26 -3.1 50 50 SSE 8 13 29.85 1011 10 16.0934 0 0
11:35 pm 23:35 Clear 45 7 27 -2.6 51 51 SSE 7 11 29.83 1010 10 16.0934 0 0
11:55 pm 23:55 Clear 45 7 27 -2.7 50 50 SSE 6 9 29.83 1010 10 16.0934 0 0

Powered by AerisWeather